Simultaneous Nadir Overpasses (SNOs) Predictions

Prediction of SNOs between NOAA-20 and AQUA Satellite Orbit:

Table of predicted SNOs for the next 14.0 days since TLE Epoch: 1/2/2021
Index Date (NOAA-20) Time (NOAA-20) Lat,Lon (NOAA-20) SZA (NOAA-20 ) Date (AQUA) Time (AQUA) Lat,Lon (AQUA) SZA (AQUA ) Distance(km) Time Diff (sec)
1 01/02/2021 05:56:22 -75.31, 147.77 59.47 01/02/2021 05:57:04 -75.32, 147.81 59.53 1.47 42
2 01/02/2021 06:46:41 76.47, -41.05 119.19 01/02/2021 06:46:06 76.47, -41.05 119.22 0.16 35
3 01/04/2021 22:13:08 -75.76, -95.06 60.18 01/04/2021 22:13:24 -75.76, -95.03 60.20 0.72 16
4 01/04/2021 23:03:28 76.85, 76.19 118.53 01/04/2021 23:02:27 76.84, 76.14 118.60 1.56 61
5 01/07/2021 13:39:29 75.23,-148.25 120.18 01/07/2021 13:40:36 75.22,-148.34 120.14 2.71 67
6 01/07/2021 14:29:54 -76.20, 22.20 60.95 01/07/2021 14:29:44 -76.19, 22.18 60.93 0.74 10
7 01/10/2021 05:56:22 75.34, -32.13 119.74 01/10/2021 05:57:02 75.35, -32.10 119.70 0.98 40
8 01/10/2021 06:46:39 -76.67, 139.71 61.82 01/10/2021 06:46:03 -76.66, 139.61 61.77 2.89 36
9 01/12/2021 22:13:03 75.97, 85.65 118.66 01/12/2021 22:13:17 75.96, 85.59 118.66 1.79 14
10 01/12/2021 23:03:32 -76.73,-104.26 62.27 01/12/2021 23:02:29 -76.73,-104.25 62.22 0.31 63
11 01/15/2021 13:39:31 -75.20, 31.68 60.87 01/15/2021 13:40:36 -75.19, 31.60 60.91 2.31 65



Historial Predications of SNOs between NOAA-20 and AQUA
